Bloomington, IN

6:54 PM EDT on April 20, 2018 (GMT -0400)
Monroe County

Weather History for KBMG - May, 2014

Change the Weather History Date:

Friday, May 16, 2014

  Actual Average Record
Temperature  
Mean Temperature 50 °F 62 °F  
Max Temperature 56 °F 74 °F 88 °F (2001)
Min Temperature 44 °F 51 °F 33 °F (1997)
Degree Days  
Heating Degree Days 15 4  
Month to date heating degree days 82 92  
Since 1 July heating degree days 5789 5206  
Cooling Degree Days 0 2  
Month to date cooling degree days 42 20  
Year to date cooling degree days 51 39  
Moisture  
Dew Point 42 °F    
Average Humidity 74    
Maximum Humidity 93    
Minimum Humidity 54    
Precipitation  
Precipitation 0.20 in 0.16 in 0.36 in (2015)
Month to date precipitation 3.02 2.80  
Year to date precipitation 17.23 17.45  
Sea Level Pressure  
Sea Level Pressure 30.01 in    
Wind  
Wind Speed 9 mph (SW)    
Max Wind Speed 20 mph    
Max Gust Speed 29 mph    
Visibility 10 miles    
Events Rain    
T = Trace of Precipitation, MM = Missing Value Source: NWS Daily Summary

Daily Weather History Graph

Daily Weather History Graph

Search for Another Location

Airport or City:

Astronomy

May. 16, 2014 Rise Set
Actual Time 6:32 AM EDT 8:53 PM EDT
Civil Twilight 6:02 AM EDT 9:24 PM EDT
Nautical Twilight 5:24 AM EDT 10:01 PM EDT
Astronomical Twilight 4:43 AM EDT 10:42 PM EDT
Moon 11:00 PM EDT (5/16) 8:13 AM EDT (5/16)
Length of Visible Light 15h 21m
Length of Day
14h 21m
Waning Gibbous, 95% of the Moon is Illuminated
May 16
Waning Gibbous
May 21
Last Quarter
May 28
New
Jun 5
First Quarter
Jun 13
Full

Hourly Weather History & Observations

Time (EDT) Temp. Windchill Dew Point Humidity Pressure Visibility Wind Dir Wind Speed Gust Speed Precip Events Conditions
12:53 AM 46.9 °F - 43.0 °F 86% 30.05 in 10.0 mi SW 8.1 mph - 0.00 in Rain Light Rain
1:03 AM 48.0 °F - 44.1 °F 86% 30.05 in 10.0 mi SSW 8.1 mph - 0.00 in Rain Light Rain
2:07 AM 46.9 °F - 44.1 °F 90% 30.02 in 8.0 mi Calm Calm - 0.02 in Rain Light Rain
2:53 AM 46.9 °F - 44.1 °F 90% 30.01 in 5.0 mi Calm Calm - 0.08 in Rain Rain
3:48 AM 46.4 °F 44.3 °F 44.6 °F 93% 29.99 in 10.0 mi SSE 4.6 mph - 0.04 in Rain Light Rain
4:53 AM 46.9 °F - 45.0 °F 93% 29.98 in 10.0 mi SSE 3.5 mph - 0.00 in   Overcast
5:07 AM 46.9 °F - 45.0 °F 93% 29.98 in 9.0 mi South 3.5 mph - N/A   Overcast
5:53 AM 46.0 °F 43.9 °F 44.1 °F 93% 29.97 in 10.0 mi South 4.6 mph - N/A   Mostly Cloudy
6:12 AM 46.0 °F 43.9 °F 44.1 °F 93% 29.97 in 10.0 mi SSW 4.6 mph - N/A   Overcast
6:23 AM 46.0 °F 43.9 °F 44.1 °F 93% 29.97 in 10.0 mi South 4.6 mph - N/A   Overcast
6:53 AM 46.9 °F - 44.1 °F 90% 29.98 in 10.0 mi SW 6.9 mph - N/A   Overcast
6:55 AM 46.9 °F - 44.1 °F 90% 29.98 in 10.0 mi SW 6.9 mph - N/A   Overcast
7:07 AM 46.9 °F - 44.1 °F 90% 29.98 in 9.0 mi SW 5.8 mph - N/A   Overcast
7:53 AM 46.9 °F - 44.1 °F 90% 29.99 in 8.0 mi WSW 9.2 mph - N/A   Scattered Clouds
8:27 AM 48.0 °F - 44.1 °F 86% 29.99 in 10.0 mi SW 9.2 mph - N/A   Mostly Cloudy
8:53 AM 48.9 °F - 45.0 °F 86% 29.99 in 10.0 mi WSW 8.1 mph - N/A   Mostly Cloudy
9:31 AM 48.9 °F - 43.0 °F 80% 29.99 in 10.0 mi SW 9.2 mph - N/A   Mostly Cloudy
9:39 AM 48.9 °F - 43.0 °F 80% 29.99 in 10.0 mi SW 9.2 mph - N/A   Partly Cloudy
9:53 AM 50.0 °F - 43.0 °F 77% 30.00 in 10.0 mi SW 10.4 mph - N/A   Scattered Clouds
10:53 AM 52.0 °F - 43.0 °F 71% 30.00 in 10.0 mi SW 6.9 mph - N/A   Partly Cloudy
11:53 AM 51.1 °F - 37.0 °F 59% 30.00 in 10.0 mi WSW 11.5 mph - N/A   Overcast
12:53 PM 53.1 °F - 39.0 °F 59% 29.99 in 10.0 mi West 10.4 mph - 0.01 in   Mostly Cloudy
1:53 PM 52.0 °F - 37.0 °F 57% 29.98 in 10.0 mi West 13.8 mph 26.5 mph 0.00 in   Mostly Cloudy
2:53 PM 54.0 °F - 39.0 °F 57% 29.99 in 10.0 mi WSW 17.3 mph 20.7 mph N/A   Mostly Cloudy
4:53 PM 53.1 °F - 37.0 °F 55% 30.00 in 10.0 mi West 11.5 mph 21.9 mph N/A   Mostly Cloudy
5:53 PM 46.9 °F - 37.9 °F 71% 30.03 in 10.0 mi West 9.2 mph - 0.00 in   Overcast
6:53 PM 48.9 °F - 39.0 °F 69% 30.03 in 10.0 mi WSW 12.7 mph 20.7 mph N/A   Scattered Clouds
7:53 PM 46.9 °F - 39.9 °F 77% 30.04 in 10.0 mi WSW 10.4 mph - N/A   Mostly Cloudy
8:53 PM 46.0 °F 42.5 °F 39.9 °F 79% 30.05 in 10.0 mi WSW 6.9 mph - N/A   Scattered Clouds
9:53 PM 46.0 °F 42.5 °F 42.1 °F 86% 30.07 in 10.0 mi WSW 6.9 mph - N/A   Overcast
10:35 PM 45.0 °F 42.6 °F 42.1 °F 90% 30.08 in 10.0 mi West 4.6 mph - N/A   Mostly Cloudy
10:53 PM 45.0 °F 40.6 °F 42.1 °F 90% 30.08 in 8.0 mi WNW 8.1 mph - 0.00 in Rain Light Rain
11:08 PM 45.0 °F 41.8 °F 41.0 °F 86% 30.08 in 10.0 mi West 5.8 mph - 0.00 in   Mostly Cloudy
11:53 PM 45.0 °F 41.8 °F 42.1 °F 90% 30.09 in 10.0 mi West 5.8 mph - 0.00 in   Overcast